Regional Weather Roundup
Issued by NWS Northern Indiana

Home | Current Version | Previous Version | Graphics & Text | Print | Product List | Glossary On
Versions: 1 2 3 4 5 6 7 8 9 10 11 12 13 14 15 16 17 18 19 20 21 22 23 24 25 26 27 28 29 30 31 32 33 34 35 36 37 38 39 40 41 42 43 44 45 46 47 48 49 50
000
ASUS43 KIWX 281500
RWRIWX

KIWX WEATHER ROUNDUP
NATIONAL WEATHER SERVICE NORTHERN INDIANA
1000 AM EST SAT FEB 28 2015

NOTE: "FAIR" INDICATES FEW OR NO CLOUDS BELOW 12,000 FEET WITH NO
SIGNIFICANT WEATHER AND/OR OBSTRUCTIONS TO VISIBILITY.

* THESE STATIONS ARE NOT UNDER NWS QUALITY CONTROL. THEY ALSO MAY NOT
  REPORT WEATHER SUCH AS PRECIPITATION OR FOG.

INZ001>027-281600-
NORTHERN INDIANA

CITY           SKY/WX    TMP DP  RH WIND       PRES   REMARKS
GARY*          MOSUNNY    9   1  72 CALM      30.74S
KNOX*            N/A      9 -11  40 E3        30.73F
SOUTH BEND     SUNNY      8  -1  66 CALM      30.74S
ELKHART*       SUNNY      5   0  78 CALM      30.75S
GOSHEN         SUNNY      1  -2  87 CALM      30.73S
MONTICELLO*    MOSUNNY    9   1  68 E5        30.72F WCI   1
ANGOLA*        SUNNY      7  -8  51 CALM      30.73R
FORT WAYNE     PTSUNNY   11   2  67 E5        30.74F WCI   3

$$
INZ028>050-281600-
CENTRAL INDIANA

CITY           SKY/WX    TMP DP  RH WIND       PRES   REMARKS
LAFAYETTE      MOSUNNY   12   4  70 E6        30.72S WCI   3
KOKOMO*        SUNNY     12   7  79 E9        30.72S WCI   0
MUNCIE*        SUNNY     14   1  56 SE8       30.71S WCI   3
INDIANAPOLIS   CLOUDY    16   3  56 SE10      30.69F WCI   4

$$
MIZ043>046-050>051-056>058-064>065-071>073-077>080-281600-
SOUTHWEST LOWER MICHIGAN

CITY           SKY/WX    TMP DP  RH WIND       PRES   REMARKS
BATTLE CREEK   SUNNY      7  -3  64 SW7       30.72R WCI  -5
BENTON HARBOR  SUNNY      6  -1  73 S6        30.74S WCI  -4
COLDWATER*     SUNNY      1  -5  75 CALM      30.72S
HILLSDALE*     SUNNY     11  -1  57 S6        30.70S WCI   1
HOLLAND        SUNNY      7   0  73 S9        30.72S WCI  -7
GRAND RAPIDS   MOSUNNY    9   0  67 S9        30.71R WCI  -4
KALAMAZOO      SUNNY      5  -1  76 S7        30.73R WCI  -7
STURGIS*       SUNNY      3  -2  78 CALM      30.72S
THREE RIVERS*  FAIR       3  -2  80 S6        30.74F WCI  -8

$$
OHZ001>008-015>018-024>025-281600-
NORTHWEST OHIO

CITY           SKY/WX    TMP DP  RH WIND       PRES   REMARKS
DEFIANCE       SUNNY      9   0  67 CALM      30.77R
FINDLAY        SUNNY      8  -3  61 S5        30.75S WCI   0
TOLEDO EXPRESS SUNNY     10   1  67 S5        30.77R WCI   2
TOLEDO METCALF SUNNY      7  -2  66 CALM      30.79R
LIMA           SUNNY     14  -1  51 SE7       30.73S WCI   4

$$
AND FOR LAKE MICHIGAN COASTAL AND OPEN LAKE BUOY OBSERVATIONS

STATION/POSITION TEMP    WIND        PRES    VSBY  WAVE
                 AIR SEA DIR/SP/G                  HT/PER
                 (F)     (DEG/KT/KT) (MB)    (MI)  (FT/S)
CALUMET HARBOR     7     180/  5/  6 1039.2R
MICHIGAN CITY      4     120/  4/  6   N/A
SAINT JOSEPH       6     150/  5/  9 1041.0F

$$
&&


USA.gov is the U.S. government's official web portal to all federal, state and local government web resources and services.